Location: Ciserano
(45.5833°N, 9.6000°E)
Time: 04:32:11
(UTC+00:00)

COSMO-SKYMED 1 - Pass Details

Date: 29 November 2020
Orbit: 621 x 623 km, 97.9° (Epoch: 27 January)

Event Time Altitude Azimuth Distance (km) Brightness Sun altitude
Rises 04:57:35 0° 181° (S) 2,889 6.2 -17.3°
Reaches altitude 10° 04:59:50 10° 188° (S) 1,988 5.2 -16.9°
Maximum altitude 05:03:59 45° 261° (W) 859 2.8 -16.2°
Enters shadow 05:06:50 19° 327° (NNW) 1,504 4.1 -15.7°
